[[{"header":{"parameterUnit":"m.s-1","parameterCategory":1,"la1":30.2991,"la2":30.254,"lo1":-89.0895,"lo2":-89.0444,"dy":0.0017,"dx":0.0017,"nx":28,"ny":28,"refTime":"2025-07-14T09:00:00:Z","depth":0,"parameterNumber":2,"parameterNumberName":"U-component_of_WINDS"},"data":[0,0,0,0,0,0,0,0,0,0,0,0,0,0,0,0,0,0,0,0,0,0,0,0,0,0,0,0,0,0,0,0,0,0,0,0,0,0,0,0,0,0,0,0,0,0,0,0,0,0,0,0,0,0,0,0,0,0,0.9391,0.9393,0,0.9553,0.9555,0.9557,0.9613,0.9612,0.9612,0.9611,0.9782,0.9787,0.9792,0,0,0,0,0,0,0,0,0,0,0,0,0,0.9133,0.9138,0.9391,0.9393,0.9395,0.9553,0.9555,0.9557,0.9613,0.9612,0.9611,0.9611,0.978,0.9786,0.9792,0,0,0,0,0,0,0,0,0,0,0,0,0,0.9265,0.9139,0.939,0.9442,0.9448,0.9552,0.9555,0.9558,0.9613,0.9612,0.9611,0.961,0.9778,0.9786,0.9793,0.986,0,0,0.9817,0.982,0,0,0,0,0,0,0,0,0.9258,0.9275,0.9432,0.9438,0.9445,0.9562,0.9527,0.9659,0.9613,0.955,0.9611,0.961,0.971,0.9723,0.9756,0.9868,0.9875,0.9817,0.9822,0.9825,0.9828,0,0,0,0,0,0,0,0.9249,0.9268,0.9455,0.9434,0.9442,0.9458,0.9475,0.9552,0.9634,0.9556,0.956,0.9578,0.9713,0.9748,0.976,0.9878,0.9817,0.9824,0.9829,0.9832,1.0053,1.0054,0,0,0,0,0,0,0.923,0.926,0.945,0.946,0.9347,0.9463,0.9483,0.9525,0.9633,0.9648,0.9579,0.958,0.9735,0.9751,0.9766,0.9851,0.9825,0.9833,0.9837,1.0052,1.0053,1.0055,0,0,0,0,0,0,0.9225,0.9247,0.9443,0.9361,0.9387,0.9468,0.9516,0.9529,0.9564,0.965,0.9666,0.9599,0.9735,0.9755,0.9836,0.9858,0.9836,0.9843,1.005,1.0052,1.0054,1.0022,0,0,0,0,0,0,0.9217,0.9244,0.927,0.9361,0.9392,0.9509,0.9517,0.9533,0.9576,0.958,0.9674,0.9688,0.9736,0.9824,0.9843,0.9868,0.9849,1.0049,1.0051,1.0053,1.0021,1.0022,1.0023,0,0,0,0,0,0.9208,0.9255,0.9271,0.9293,0.9425,0.951,0.9528,0.958,0.9578,0.9605,0.966,0.9685,0.9852,0.9832,0.9854,0.9882,1.0048,1.0051,1.0053,1.0021,1.0022,1.0023,0,0,0,0,0,0,0.9166,0.9268,0.9286,0.9365,0.9428,0.9519,0.9555,0.958,0.9646,0.9647,0.9711,0.9731,0.9807,0.9853,0.9828,0.9952,0.9952,0.9959,0.9919,0.9921,0.9922,0.991,0.9856,0,0,0,0,0,0.9165,0.9225,0.9312,0.9373,0.9403,0.9473,0.9512,0.9547,0.9616,0.9643,0.9705,0.9772,0.984,0.9883,0.995,1.0028,1.0049,1.0058,1.0059,1.0059,1.0065,1.011,1.0114,1.0064,1.0064,1.0064,0,0,0.9166,0.9229,0.9263,0.9366,0.9419,0.948,0.9495,0.956,0.9606,0.9654,0.9733,0.978,0.986,0.9939,0.9977,0.9979,1.0084,1.0063,1.0062,1.0068,1.0113,1.0118,1.0122,1.0066,1.0066,1.0065,0,0,0.9197,0.9251,0.9307,0.936,0.9439,0.9486,0.9499,0.9586,0.9619,0.9699,0.9736,0.9793,0.9908,0.9963,1.0005,1.0057,1.0082,1.0077,1.0082,1.0125,1.0129,1.0133,1.0151,1.0157,1.0082,1.0082,1.0082,0,0.9188,0.928,0.9334,0.9396,0.944,0.9484,0.9542,0.9591,0.9689,0.9719,0.972,0.9864,0.9921,1.0013,1.0025,1.0059,1.0077,1.0067,1.0124,1.0128,1.0133,1.0151,1.0157,1.0081,1.0081,1.0081,1.0081,0,0.9265,0.9329,0.9365,0.9456,0.9505,0.9564,0.9628,0.9671,0.9701,0.9747,0.9828,0.9897,0.9979,1.0003,1.0034,1.01,1.0099,1.0111,1.0112,1.0135,1.0153,1.0161,1.0079,1.008,1.008,1.008,0,0,0.9276,0.9395,0.9407,0.9449,0.954,0.959,0.9652,0.973,0.9766,0.9832,0.9886,0.9982,0.9993,1.0041,1.0079,1.0116,1.0152,1.0124,1.0127,1.0126,1.0229,1.0219,1.0226,1.0169,1.0171,1.0172,1.0222,0,0.9319,0.943,0.948,0.9569,0.9628,0.9671,0.9725,0.9787,0.9831,0.9889,0.994,1.0006,1.0016,1.0045,1.0084,1.0139,1.0174,1.0137,1.0221,1.0224,1.02,1.0236,1.0227,1.027,1.023,1.0231,1.0232,0,0.9385,0.9449,0.9544,0.9626,0.9653,0.9701,0.9776,0.983,0.9902,0.9932,0.9985,1.0021,1.0088,1.0084,1.0179,1.0152,1.019,1.0222,1.0225,1.0236,1.0229,1.0247,1.0286,1.0292,1.0244,1.0243,1.0242,0,0.9383,0.9493,0.9564,0.9598,0.9697,0.9729,0.9772,0.9842,0.9886,0.9952,0.9981,1.0055,1.0095,1.0152,1.0207,1.0199,1.0296,1.0296,1.0323,1.0322,1.0343,1.034,1.0387,1.0366,1.0366,1.0366,1.0366,0,0.9426,0.9483,0.9564,0.9607,0.9672,0.9728,0.9791,0.9837,0.9899,0.9953,0.9995,1.0045,1.0114,1.0173,1.0217,1.0288,1.0307,1.0333,1.0344,1.033,1.0326,1.0355,1.0354,1.0368,1.0367,1.0367,1.0367,0,0.9435,0.9492,0.9572,0.9658,0.9681,0.9724,0.9799,0.9843,0.9889,0.9957,0.9976,1.005,1.0121,1.0181,1.0276,1.0305,1.0379,1.0392,1.0355,1.0361,1.0384,1.0381,1.0452,1.0464,1.0434,1.0434,1.0434,0,0.9459,0.9503,0.9593,0.9632,0.9673,0.9735,0.9779,0.9836,0.9881,0.9965,0.9999,1.0073,1.0136,1.0248,1.0311,1.0383,1.0398,1.0418,1.041,1.0393,1.0399,1.0395,1.04,1.0419,1.0419,1.0419,1.0419,0,0.9496,0.9521,0.9582,0.9653,0.9704,0.9764,0.9824,0.9853,0.9922,0.997,1.0043,1.0091,1.0186,1.026,1.0339,1.0384,1.0413,1.0421,1.0431,1.0417,1.0393,1.0406,1.0356,1.0419,1.0419,1.0419,1.0419,1.0419,0.9513,0.9554,0.9623,0.969,0.9741,0.9796,0.9842,0.9893,0.9954,1.0035,1.0066,1.014,1.0211,1.032,1.0365,1.0425,1.0429,1.0444,1.0447,1.045,1.0448,1.0383,1.044,1.044,1.044,1.044,1.044,0,0.9552,0.9598,0.9659,0.9741,0.9794,0.9814,0.9882,0.9925,0.9989,1.0052,1.0112,1.0195,1.0266,1.0334,1.0408,1.0443,1.0458,1.0461,1.0459,1.0469,1.044,1.0424,1.0447,1.0447,1.0447,1.0447,1.0447,1.0447,0.9578,0.9648,0.9681,0.9777,0.9824,0.9896,0.9933,0.9984,1.0034,1.0125,1.0183,1.0226,1.0291,1.0371,1.0437,1.0455,1.0481,1.048,1.0501,1.0473,1.0471,1.047,1.0455,1.0485,1.0485,1.0526,1.0526,1.0526]},{"header":{"parameterUnit":"m.s-1","parameterCategory":1,"la1":30.2991,"la2":30.254,"lo1":-89.0895,"lo2":-89.0444,"dy":0.0017,"dx":0.0017,"nx":28,"ny":28,"refTime":"2025-07-14T09:00:00:Z","depth":0,"parameterNumber":3,"parameterNumberName":"V-component_of_WINDS"},"data":[0,0,0,0,0,0,0,0,0,0,0,0,0,0,0,0,0,0,0,0,0,0,0,0,0,0,0,0,0,0,0,0,0,0,0,0,0,0,0,0,0,0,0,0,0,0,0,0,0,0,0,0,0,0,0,0,0,0,3.4271,3.427,0,3.4195,3.4194,3.4193,3.4176,3.4176,3.4177,3.4177,3.4091,3.4089,3.4086,0,0,0,0,0,0,0,0,0,0,0,0,0,3.4392,3.439,3.4271,3.427,3.4269,3.4195,3.4194,3.4193,3.4176,3.4176,3.4177,3.4178,3.4092,3.4089,3.4086,0,0,0,0,0,0,0,0,0,0,0,0,0,3.433,3.439,3.4271,3.4252,3.4249,3.4195,3.4194,3.4193,3.4176,3.4176,3.4177,3.4178,3.4093,3.4089,3.4085,3.4043,0,0,3.4072,3.407,0,0,0,0,0,0,0,0,3.4334,3.4326,3.4256,3.4253,3.425,3.4196,3.4205,3.4142,3.4175,3.4203,3.4177,3.4178,3.4125,3.4118,3.4102,3.4039,3.4035,3.4072,3.4069,3.4067,3.4066,0,0,0,0,0,0,0,3.4338,3.4329,3.4241,3.4255,3.4251,3.4244,3.4236,3.4193,3.416,3.4201,3.42,3.4191,3.4123,3.4106,3.41,3.4034,3.4072,3.4068,3.4066,3.4064,3.3928,3.3927,0,0,0,0,0,0,3.4347,3.4333,3.4243,3.4238,3.4295,3.4241,3.4232,3.4212,3.4161,3.4154,3.4191,3.4191,3.4113,3.4105,3.4097,3.4041,3.4067,3.4064,3.4061,3.3929,3.3928,3.3927,0,0,0,0,0,0,3.435,3.4339,3.4246,3.4285,3.4273,3.4238,3.4216,3.421,3.4193,3.4153,3.4146,3.4179,3.4113,3.4102,3.4056,3.4038,3.4062,3.4058,3.393,3.3929,3.3927,3.3932,0,0,0,0,0,0,3.4353,3.434,3.4326,3.4285,3.4271,3.421,3.4215,3.4208,3.4187,3.4186,3.414,3.4134,3.4113,3.4062,3.4052,3.4033,3.4055,3.3932,3.393,3.3928,3.3933,3.3931,3.3929,0,0,0,0,0,3.4358,3.4329,3.4325,3.4315,3.4253,3.4209,3.42,3.418,3.4186,3.4169,3.4143,3.4135,3.4042,3.4058,3.4046,3.4025,3.3933,3.393,3.3928,3.3934,3.3931,3.3929,0,0,0,0,0,0,3.4367,3.4324,3.4319,3.4277,3.4247,3.4206,3.4185,3.4177,3.4143,3.4144,3.4117,3.4106,3.4061,3.4038,3.4057,3.398,3.3987,3.3982,3.3996,3.3993,3.3991,3.3996,3.4051,0,0,0,0,0,3.4364,3.4335,3.4298,3.4264,3.425,3.422,3.42,3.4187,3.4154,3.414,3.4111,3.4076,3.4039,3.4015,3.3979,3.393,3.3918,3.391,3.3908,3.3906,3.3901,3.3871,3.3866,3.3919,3.3919,3.3919,0,0,3.4358,3.4331,3.4314,3.4265,3.4241,3.4208,3.421,3.4175,3.415,3.4134,3.4089,3.4066,3.4025,3.3977,3.3954,3.3957,3.3884,3.3903,3.3902,3.3898,3.3868,3.3863,3.3859,3.3917,3.3917,3.3918,0,0,3.433,3.4308,3.4276,3.4252,3.4215,3.4195,3.4188,3.4148,3.4132,3.4087,3.4074,3.4041,3.3979,3.395,3.3927,3.3886,3.3876,3.3875,3.3862,3.3833,3.3829,3.3825,3.3808,3.3802,3.3871,3.3871,3.3871,0,3.4326,3.4279,3.4261,3.4227,3.4205,3.4191,3.4157,3.4133,3.4085,3.4068,3.4073,3.3993,3.3965,3.3908,3.3898,3.3881,3.3869,3.3879,3.3831,3.3827,3.3823,3.3806,3.38,3.387,3.387,3.387,3.387,0,3.4275,3.4242,3.4221,3.4178,3.4153,3.4119,3.4092,3.4069,3.4057,3.4036,3.3988,3.3954,3.3909,3.3895,3.3883,3.3836,3.3838,3.3837,3.3844,3.3818,3.3802,3.3796,3.387,3.387,3.387,3.387,0,0,3.425,3.4197,3.4189,3.4168,3.4126,3.4099,3.4063,3.4022,3.4001,3.3968,3.3935,3.3882,3.388,3.3854,3.3838,3.3812,3.3779,3.3814,3.3812,3.3807,3.3722,3.3722,3.3715,3.3773,3.3772,3.3771,3.3725,0,3.4216,3.4155,3.4136,3.4083,3.4051,3.4037,3.4005,3.3974,3.3952,3.3919,3.3895,3.3857,3.3859,3.3842,3.3817,3.3789,3.3761,3.3792,3.3738,3.3737,3.3748,3.3707,3.3707,3.3666,3.3718,3.3717,3.3717,0,3.4167,3.4135,3.408,3.404,3.4026,3.3998,3.3958,3.3928,3.389,3.3876,3.3847,3.3833,3.3791,3.3801,3.3741,3.3762,3.3739,3.3722,3.3719,3.3712,3.3724,3.3697,3.3652,3.3645,3.3707,3.3708,3.3708,0,3.4152,3.4095,3.4054,3.4037,3.399,3.397,3.3949,3.3913,3.3889,3.3853,3.3836,3.3794,3.3771,3.3737,3.3711,3.3721,3.3652,3.3661,3.3636,3.3637,3.3621,3.3622,3.3571,3.361,3.361,3.361,3.361,0,3.4114,3.408,3.4047,3.4021,3.3982,3.3959,3.392,3.3897,3.3865,3.3832,3.3817,3.3786,3.3754,3.3717,3.3696,3.3648,3.3638,3.3623,3.3617,3.3623,3.3625,3.3606,3.3608,3.3608,3.3608,3.3609,3.3609,0,3.4091,3.4067,3.4021,3.3981,3.397,3.3942,3.3906,3.3878,3.3857,3.3815,3.3804,3.3769,3.3725,3.3696,3.3639,3.3624,3.3571,3.3567,3.3585,3.3582,3.3558,3.356,3.3491,3.348,3.3528,3.3528,3.3528,0,3.4067,3.4041,3.3998,3.3977,3.3956,3.3921,3.3897,3.3873,3.3847,3.3802,3.3779,3.3735,3.3699,3.3629,3.3595,3.3551,3.3544,3.3523,3.3537,3.3544,3.3541,3.3542,3.3538,3.3521,3.352,3.352,3.352,0,3.4028,3.4017,3.3984,3.3946,3.3918,3.3887,3.3854,3.3837,3.3806,3.3777,3.3734,3.3706,3.3649,3.3603,3.3556,3.353,3.3518,3.3516,3.3507,3.3512,3.3523,3.3514,3.3577,3.3517,3.3517,3.3517,3.3518,3.3518,3.4002,3.3977,3.3943,3.3906,3.388,3.385,3.3822,3.3797,3.3761,3.3715,3.3701,3.3655,3.3615,3.3551,3.3524,3.3485,3.3487,3.3476,3.3472,3.3469,3.3468,3.3531,3.3477,3.3477,3.3477,3.3477,3.3477,0,3.396,3.3937,3.3903,3.386,3.383,3.3824,3.3788,3.3762,3.3723,3.3688,3.3653,3.3601,3.3557,3.352,3.3474,3.3449,3.3442,3.3437,3.3438,3.3432,3.347,3.3481,3.3444,3.3444,3.3444,3.3444,3.3444,3.3444,3.3934,3.3892,3.3877,3.3819,3.3796,3.3753,3.3732,3.3703,3.3675,3.3619,3.3583,3.3561,3.3524,3.3474,3.3432,3.3422,3.3405,3.3401,3.3389,3.3426,3.3429,3.3433,3.3443,3.3398,3.3398,3.3353,3.3353,3.3353]}]]